Погода в Алексеевке

Россия / Челябинская область     53°33′07″N   61°27′37″E
темп.,
°C
ветер,
м/с
пор.,
м/с
влажн.,
%
обл.,
%
осадки,
мм/ч
давл.,
гПа
погр.,
м
18 мая, вт
вт1823:00+22св124399 0.2 101713
02:00+21зюз2244100 0.0 101616
05:00+19зсз33487 0.0 101632
08:00+23ссз243785 0.0 1016372
11:00+28ссв452914 0.0 10151052
14:00+30зсз36196 0.0 10133486
17:00+17ююз5781100 9.4 1017231
20:00+19сз24675 0.6 101395
19 мая, ср
ср1923:00+17ссв612741 0.6 1015321
02:00+14ссв512850 0.1 1017412
05:00+13ссв612875 0.1 1018520
08:00+14св710713 0.0 1020740
11:00+17св785640 0.0 10211430
14:00+20св89415 0.0 10211758
17:00+21всв77361 0.0 10211841
20:00+18всв584512 0.0 1021217
20 мая, чт
чт2023:00+14всв39535 0.0 1023156
02:00+12всв345822 0.0 102459
05:00+11в33615 0.0 102431
08:00+15в34485 0.0 1025319
11:00+20вюв33360 0.0 10241482
14:00+22ююв23305 0.0 10231798
17:00+23юв22280 0.0 10221865
20:00+20вюв12394 0.0 102112
21 мая, пт
пт2123:00+16ю33425 0.0 102230
02:00+14ю22480 0.0 102212
05:00+13ю22521 0.0 102211
08:00+18ю34450 0.0 1022258
11:00+23ю45320 0.0 10221610
14:00+25ю35240 0.0 10202209
17:00+26ю45210 0.0 10192529
20:00+22юв46375 0.0 101885
22 мая, сб
сб2223:00+18ю493956 0.0 1020138
02:00+17ююз334590 0.0 101941
05:00+15зюз336798 0.0 102027
08:00+19зюз34605 0.0 1020331
11:00+24з34390 0.0 10201403
14:00+27з363067 0.0 10192869
17:00+27з4528100 0.0 10182777
20:00+23сз334355 0.0 101826